Weather reports worldwide

Advertisment
Lorient Lan Bihoue, France (7205): temperature & dewpoint: 10.09.2019 05:00:00 - 16.09.2019 05:00:00 (CEST)Lorient Lan Bihoue, France (7205): temperature 5cm: 10.09.2019 05:00:00 - 16.09.2019 05:00:00 (CEST)Lorient Lan Bihoue, France (7205): temperature -20cm: 10.09.2019 05:00:00 - 16.09.2019 05:00:00 (CEST)Lorient Lan Bihoue, France (7205): wind speed & gusts: 10.09.2019 05:00:00 - 16.09.2019 05:00:00 (CEST)Lorient Lan Bihoue, France (7205): wind direction: 10.09.2019 05:00:00 - 16.09.2019 05:00:00 (CEST)Lorient Lan Bihoue, France (7205): reduced air pressure: 10.09.2019 05:00:00 - 16.09.2019 05:00:00 (CEST)Lorient Lan Bihoue, France (7205): visibility: 10.09.2019 05:00:00 - 16.09.2019 05:00:00 (CEST)Lorient Lan Bihoue, France (7205): sunshine duration: 10.09.2019 05:00:00 - 16.09.2019 05:00:00 (CEST)Lorient Lan Bihoue, France (7205): precipitation: 10.09.2019 05:00:00 - 16.09.2019 05:00:00 (CEST)
Date & Time tt [°C] td [°C] tt 5cm [°C] tt -20cm [°C] ff [km/h] ff [kn] fx [km/h] fx [kn] dd ppp [hPa] vv [km] sd [min] rr [mm]
16.09.2019 05:00:00 11,2 10,1 10,2 19,0 18 10 29 15 NNE 1023,0 13 0 0,0
16.09.2019 04:00:00 11,9 10,5 10,7 19,2 12 7 19 11 NE 1023,3 18 0 0,0
16.09.2019 03:00:00 13,2 10,7 11,9 19,3 13 7 21 12 NNE 1023,4 39 0 0,0
16.09.2019 02:00:00 14,0 11,3 13,1 19,5 15 8 26 14 NNE 1023,4 35 0 0,0
16.09.2019 01:00:00 15,2 12,1 14,4 19,5 16 9 27 15 NNE 1023,6 38 0 0,0
16.09.2019 00:00:00 16,2 13,3 15,1 19,5 13 7 22 12 NE 1023,9 43 0 0,0
15.09.2019 23:00:00 17,4 13,7 16,0 19,7 13 7 26 14 NE 1023,7 49 0 0,0
15.09.2019 22:00:00 19,6 14,4 18,6 19,7 16 8 32 18 NE 1023,2 55 0 0,0
15.09.2019 21:00:00 21,8 15,6 18,6 19,8 16 9 27 15 NE 1022,9 44 4 0,0
15.09.2019 20:00:00 22,9 16,7 22,4 19,5 5 3 10 5 WSW 1022,6 44 60 0,0
15.09.2019 19:00:00 24,9 16,9 26,2 19,5 7 4 17 9 SW 1022,4 43 57 0,0
15.09.2019 18:00:00 25,0 17,0 29,0 19,1 14 8 19 10 WSW 1022,5 40 60 0,0
15.09.2019 17:00:00 26,3 16,5 32,2 19,0 13 7 19 10 WSW 1022,9 47 60 0,0
15.09.2019 16:00:00 27,2 15,2 33,1 18,5 8 4 20 11 ENE 1023,3 60 60 0,0
15.09.2019 15:00:00 26,8 15,8 32,2 18,4 12 7 23 12 NNE 1024,1 20 60 0,0
15.09.2019 14:00:00 26,1 16,4 30,2 18,3 12 7 23 12 NNE 1024,5 60 60 0,0
15.09.2019 13:00:00 25,1 16,8 27,8 18,1 14 8 27 15 NE 1025,0 60 60 0,0
15.09.2019 12:00:00 22,7 16,0 24,1 18,1 16 9 31 17 ENE 1025,3 54 60 0,0
15.09.2019 11:00:00 20,2 15,2 21,3 18,0 20 11 29 16 NE 1025,5 20 60 0,0
15.09.2019 10:00:00 17,9 15,2 18,0 18,3 16 9 24 13 NNE 1025,5 19 60 0,0
15.09.2019 09:00:00 15,6 14,1 13,3 18,3 12 7 19 11 NNE 1025,3 18 47 0,0
15.09.2019 08:00:00 13,8 12,7 12,7 18,5 13 7 18 10 NNE 1025,2 15 0 0,0
15.09.2019 07:00:00 14,4 13,3 13,6 18,6 13 7 21 12 NNE 1024,8 17 0 0,0
15.09.2019 06:00:00 14,5 13,4 13,6 18,7 12 6 18 10 NNE 1025,1 17 0 0,0
15.09.2019 05:00:00 14,9 13,6 13,6 18,8 11 6 14 8 NNE 1025,4 18 0 0,0
15.09.2019 04:00:00 15,2 13,9 13,2 18,8 10 5 16 9 NNE 1025,6 15 0 0,0
15.09.2019 03:00:00 15,5 14,0 14,3 19,0 11 6 19 10 N 1025,8 17 0 0,0
15.09.2019 02:00:00 16,1 14,1 15,0 19,1 13 7 20 11 NNE 1026,0 18 0 0,0
15.09.2019 01:00:00 16,9 14,4 15,6 19,2 14 8 18 10 NNE 1026,3 26 0 0,0
15.09.2019 00:00:00 17,4 14,3 15,9 19,2 13 7 21 11 NNE 1026,7 27 0 0,0
14.09.2019 23:00:00 18,4 14,7 16,8 19,3 15 8 27 15 NNE 1026,9 34 0 0,0
14.09.2019 22:00:00 19,7 15,6 18,5 19,4 18 10 27 14 NNE 1026,9 39 0 0,0
14.09.2019 21:00:00 21,3 16,0 20,1 19,2 14 8 25 14 NNE 1026,6 42 6 0,0
14.09.2019 20:00:00 23,6 15,6 22,6 19,2 11 6 22 12 NE 1026,1 52 60 0,0
14.09.2019 19:00:00 25,5 16,1 26,4 18,9 13 7 21 12 NE 1026,1 44 48 0,0
14.09.2019 18:00:00 26,6 16,8 30,2 18,8 10 6 25 14 NE 1026,1 45 60 0,0
14.09.2019 17:00:00 26,2 15,3 31,7 18,5 9 5 29 16 NE 1026,5 45 60 0,0
14.09.2019 16:00:00 26,1 16,1 30,8 18,2 16 8 29 16 NE 1027,1 60 60 0,0
14.09.2019 15:00:00 25,2 15,8 30,1 18,1 20 11 35 19 ENE 1027,5 52 60 0,0
14.09.2019 14:00:00 24,5 15,4 28,8 17,9 23 12 42 23 NE 1028,2 20 60 0,0
14.09.2019 13:00:00 23,3 16,3 25,6 17,9 23 12 32 17 NE 1028,8 23 60 0,0
14.09.2019 12:00:00 21,4 16,1 23,5 17,8 18 10 29 16 NE 1029,4 18 60 0,0
14.09.2019 11:00:00 19,9 15,9 21,2 17,7 18 10 34 18 ENE 1029,7 12 60 0,0
14.09.2019 10:00:00 18,1 15,9 18,6 17,8 22 12 34 18 ENE 1030,0 12 60 0,0
14.09.2019 09:00:00 16,9 15,6 15,6 17,9 21 11 33 18 NE 1030,0 11 48 0,0
14.09.2019 08:00:00 16,0 15,0 15,3 17,9 20 11 29 16 NE 1030,0 8 0 0,0
14.09.2019 07:00:00 16,0 15,0 15,3 18,1 19 10 27 15 NE 1029,8 9 0 0,0
14.09.2019 06:00:00 16,2 15,1 15,3 18,1 16 9 26 14 NE 1029,6 10 0 0,0
14.09.2019 05:00:00 16,2 15,1 15,5 18,3 15 8 29 15 NE 1030,0 12 0 0,0
14.09.2019 04:00:00 16,6 15,1 15,9 18,2 19 11 34 18 NE 1030,1 29 0 0,0
14.09.2019 03:00:00 16,7 15,1 15,9 18,3 19 10 29 16 NE 1030,5 41 0 0,0
14.09.2019 02:00:00 16,6 15,1 15,4 18,5 18 10 26 14 NE 1030,7 43 0 0,0
14.09.2019 01:00:00 16,4 14,9 15,5 18,4 18 10 27 15 NNE 1031,0 58 0 0,0
14.09.2019 00:00:00 16,6 14,6 15,7 18,6 19 10 30 16 NNE 1031,4 52 0 0,0
13.09.2019 23:00:00 17,0 14,6 15,6 18,6 14 8 22 12 NNE 1031,8 55 0 0,0
13.09.2019 22:00:00 17,6 14,7 16,4 18,4 13 7 26 14 NNE 1031,6 49 0 0,0
13.09.2019 21:00:00 18,5 14,8 17,5 18,5 20 11 35 19 NE 1031,4 54 8 0,0
13.09.2019 20:00:00 20,6 15,2 20,4 18,5 20 11 32 17 NNE 1030,8 28 60 0,0
13.09.2019 19:00:00 22,5 15,6 23,3 18,4 19 10 29 16 NNE 1030,7 55 38 0,0
13.09.2019 18:00:00 23,2 15,5 26,7 18,3 16 9 33 18 NE 1030,9 45 60 0,0
13.09.2019 17:00:00 23,0 15,8 24,8 18,0 16 8 28 15 N 1031,2 58 51 0,0
13.09.2019 16:00:00 22,2 16,0 24,0 17,9 14 8 27 15 NE 1032,1 43 16 0,0
13.09.2019 15:00:00 21,2 15,3 22,9 17,8 14 7 24 13 NNE 1032,4 42 0 0,0
13.09.2019 14:00:00 20,5 15,9 22,7 17,7 9 5 18 10 NE 1033,0 52 0 0,0
13.09.2019 13:00:00 20,2 15,8 22,2 17,6 7 4 15 8 NNE 1033,1 48 0 0,0
13.09.2019 12:00:00 19,5 15,6 21,8 17,5 7 4 18 10 NE 1033,5 58 30 0,0
13.09.2019 11:00:00 19,2 15,5 20,7 17,5 10 5 19 10 NNE 1033,8 50 44 0,0
13.09.2019 10:00:00 17,7 15,0 18,9 17,5 11 6 23 12 N 1033,8 43 60 0,0
13.09.2019 09:00:00 16,2 14,9 14,9 17,5 9 5 20 11 N 1033,5 56 43 0,0
13.09.2019 08:00:00 15,3 14,3 14,7 17,6 11 6 23 12 N 1033,0 42 0 0,0
13.09.2019 07:00:00 15,4 14,4 14,9 17,8 10 6 16 9 NNW 1032,8 41 0 0,0
13.09.2019 06:00:00 15,3 14,5 14,7 17,8 6 3 9 5 NNW 1033,0 50 0 0,0
13.09.2019 05:00:00 15,1 14,5 14,5 17,9 4 2 9 5 N 1033,1 50 0 0,0
13.09.2019 04:00:00 14,9 14,3 10,6 17,9 5 3 10 5 NNW 1032,9 42 0 0,2
13.09.2019 03:00:00 14,6 14,0 11,6 18,0 5 3 10 5 N 1033,0 44 0 0,0
13.09.2019 02:00:00 15,0 14,2 12,1 18,1 5 3 10 5 NW 1033,1 44 0 0,0
13.09.2019 01:00:00 15,4 14,6 13,5 18,2 6 3 14 7 WNW 1033,3 20 0 0,0
13.09.2019 00:00:00 16,2 15,2 15,0 18,2 8 4 17 9 NW 1033,3 36 0 0,0
12.09.2019 23:00:00 16,8 15,7 15,7 18,2 9 5 19 11 NW 1033,3 44 0 0,0
12.09.2019 22:00:00 17,2 15,7 16,5 18,3 15 8 21 11 WNW 1033,2 54 0 0,0
12.09.2019 21:00:00 17,8 15,4 17,7 18,3 9 5 14 7 WNW 1032,8 52 0 0,0
12.09.2019 20:00:00 17,8 15,6 18,3 18,2 10 6 21 11 W 1032,6 53 0 0,0
12.09.2019 19:00:00 18,1 15,9 19,2 18,2 16 8 25 13 W 1032,8 55 0 0,0
12.09.2019 18:00:00 18,6 16,2 21,0 17,9 18 10 26 14 W 1032,8 56 0 0,0
12.09.2019 17:00:00 19,4 16,2 22,3 17,9 19 10 26 14 WSW 1032,9 53 16 0,0
12.09.2019 16:00:00 19,9 15,7 23,9 17,6 18 10 28 15 WSW 1033,0 50 11 0,0
12.09.2019 15:00:00 20,3 15,1 23,9 17,5 18 10 32 17 W 1033,1 36 27 0,0
12.09.2019 14:00:00 21,1 15,0 25,5 17,2 19 11 31 17 SW 1033,0 52 58 0,0
12.09.2019 13:00:00 20,3 16,7 24,0 17,2 16 9 26 14 WSW 1033,3 39 45 0,0
12.09.2019 12:00:00 18,4 17,6 19,0 17,0 14 7 21 11 SW 1033,3 20 27 0,0
12.09.2019 11:00:00 17,3 17,0 18,4 16,9 10 5 16 8 W 1032,8 4,0 6 0,0
12.09.2019 10:00:00 17,1 16,9 16,9 17,2 8 4 13 7 WSW 1032,2 15 5 0,0
12.09.2019 09:00:00 16,3 16,1 16,2 17,1 8 4 13 7 W 1031,6 0,5 0 0,0
12.09.2019 08:00:00 16,1 15,9 16,0 17,0 9 5 13 7 WSW 1031,2 0,2 0 0,0
12.09.2019 07:00:00 16,1 15,9 16,1 17,0 9 5 12 7 WSW 1030,6 0,2 0 0,0
12.09.2019 06:00:00 16,1 15,9 16,0 17,0 6 3 14 8 WSW 1030,1 0,3 0 0,0
12.09.2019 05:00:00 16,0 15,8 16,0 17,1 9 5 16 9 W 1030,3 0,6 0 0,0
12.09.2019 04:00:00 16,0 15,7 15,9 17,0 10 6 15 8 WSW 1030,4 0,4 0 0,0
12.09.2019 03:00:00 16,0 15,7 16,0 17,1 11 6 17 9 WSW 1030,5 0,3 0 0,0
12.09.2019 02:00:00 16,0 15,7 16,0 17,0 14 8 21 11 W 1030,4 0,3 0 0,0
12.09.2019 01:00:00 16,0 15,7 16,0 17,1 13 7 20 11 WSW 1029,9 1,5 0 0,0
12.09.2019 00:00:00 16,1 15,8 16,1 17,1 13 7 23 12 W 1029,8 0,7 0 0,0
11.09.2019 23:00:00 16,3 16,0 16,2 17,0 14 8 23 13 W 1029,6 0,9 0 0,0
11.09.2019 22:00:00 16,3 15,7 16,3 17,0 13 7 22 12 W 1029,3 2,5 0 0,0
11.09.2019 21:00:00 16,5 15,9 16,6 16,9 14 8 22 12 WSW 1029,0 11 0 0,0
11.09.2019 20:00:00 16,7 15,7 17,1 16,9 16 9 31 17 WSW 1028,7 13 0 0,0
11.09.2019 19:00:00 17,5 15,8 18,6 16,9 17 9 33 18 W 1028,4 19 2 0,0
11.09.2019 18:00:00 17,6 15,6 18,5 16,7 24 13 38 21 WSW 1028,4 18 0 0,0
11.09.2019 17:00:00 17,3 14,9 18,1 16,6 23 12 37 20 WSW 1028,5 20 0 0,0
11.09.2019 16:00:00 16,4 15,3 16,8 16,5 19 11 31 17 WSW 1028,5 11 0 0,0
11.09.2019 15:00:00 16,2 14,4 16,9 16,3 23 12 33 18 WSW 1028,6 4,3 0 0,0
11.09.2019 14:00:00 16,1 14,8 16,9 16,3 24 13 36 19 WSW 1028,3 7 0 0,0
11.09.2019 13:00:00 16,3 13,8 17,0 16,2 23 12 33 18 WSW 1028,4 3,0 0 0,0
11.09.2019 12:00:00 16,5 13,2 17,0 16,2 19 11 30 16 WSW 1028,3 38 11 0,0
11.09.2019 11:00:00 15,8 13,1 15,7 16,2 14 8 20 11 WSW 1028,0 20 0 0,0
11.09.2019 10:00:00 13,8 12,9 12,0 16,4 9 5 12 7 SW 1027,3 29 7 0,0
11.09.2019 09:00:00 10,0 9,4 6,7 16,4 0 0 10 5 N 1026,9 19 8 0,2
11.09.2019 08:00:00 8,8 8,0 6,3 16,6 4 2 7 4 WNW 1026,5 16 0 0,0
11.09.2019 07:00:00 9,2 8,4 6,2 16,7 5 3 7 4 WNW 1026,0 7 0 0,0
11.09.2019 06:00:00 9,6 8,7 7,8 16,7 4 2 11 6 W 1025,7 20 0 0,0
11.09.2019 05:00:00 10,2 9,4 8,7 16,9 8 4 16 9 NW 1025,7 20 0 0,0
11.09.2019 04:00:00 10,2 9,6 8,0 17,0 9 5 13 7 NW 1026,0 17 0 0,0
11.09.2019 03:00:00 10,2 9,6 7,9 17,2 7 4 10 6 WNW 1026,0 11 0 0,0
11.09.2019 02:00:00 11,3 10,4 9,4 17,2 4 2 9 5 WSW 1025,7 14 0 0,0
11.09.2019 01:00:00 12,2 10,8 10,1 17,3 6 3 16 9 NNW 1025,7 27 0 0,0
11.09.2019 00:00:00 12,7 11,4 10,2 17,6 9 5 16 9 NNW 1025,6 30 0 0,0
10.09.2019 23:00:00 13,7 11,4 12,7 17,4 10 5 24 13 N 1025,1 38 0 0,0
10.09.2019 22:00:00 15,0 11,9 13,8 17,5 10 6 25 13 N 1024,4 47 0 0,0
10.09.2019 21:00:00 16,1 11,3 14,8 17,5 12 7 25 13 N 1023,1 53 9 0,0
10.09.2019 20:00:00 18,1 11,2 17,6 17,4 12 6 31 17 N 1022,6 51 57 0,0
10.09.2019 19:00:00 20,3 11,2 19,4 17,3 12 7 26 14 N 1021,9 33 40 0,0
10.09.2019 18:00:00 21,5 10,9 20,7 17,2 15 8 27 15 NNE 1021,6 47 35 0,0
10.09.2019 17:00:00 19,9 10,3 20,6 17,0 16 9 27 14 NE 1021,4 58 21 0,0
10.09.2019 16:00:00 20,5 11,7 20,5 16,7 15 8 30 16 NNE 1021,2 60 35 0,0
10.09.2019 15:00:00 19,7 11,5 21,8 16,7 17 9 33 18 N 1021,0 49 43 0,0
10.09.2019 14:00:00 18,8 11,4 20,7 16,4 20 11 38 20 NNE 1020,8 44 42 0,0
10.09.2019 13:00:00 19,0 12,5 19,5 16,3 23 13 38 20 NNE 1020,7 49 45 0,0
10.09.2019 12:00:00 17,7 13,2 16,9 16,2 23 12 34 18 NNE 1020,0 35 31 0,0
10.09.2019 11:00:00 16,1 12,8 17,9 16,2 19 11 34 19 N 1019,4 51 56 0,0
10.09.2019 10:00:00 14,7 13,1 14,4 16,3 16 9 29 15 N 1018,5 35 60 0,0
10.09.2019 09:00:00 13,0 12,4 10,3 16,3 12 6 21 11 N 1017,4 42 54 0,0
10.09.2019 08:00:00 11,4 10,9 8,6 16,4 9 5 15 8 N 1016,4 29 0 0,0
10.09.2019 07:00:00 10,7 10,1 8,8 16,5 9 5 16 8 N 1015,4 18 0 0,0
10.09.2019 06:00:00 11,8 10,9 9,9 16,5 8 4 24 13 N 1014,8 27 0 0,0
10.09.2019 05:00:00 12,5 11,7 10,3 16,6 12 6 24 13 NNW 1014,1 36 0 0,2

tt = temperature
td = dewpoint
tt 5cm = temperature 5cm
tt -20cm = temperature -20cm
ff = wind speed
fx = gusts
dd = wind direction
ppp = reduced air pressure
vv = visibility
sd = sunshine duration
rr = precipitation

Next stations